Prescott, AZ

3:39 PM MST on June 25, 2019 (GMT -0700)
Love

Weather History for KPRC - May, 2019

Change the Weather History Date:

Thursday, May 23, 2019

  Actual Average Record
Temperature  
Mean Temperature 46 °F 64 °F  
Max Temperature 54 °F 79 °F 93 °F (2000)
Min Temperature 37 °F 48 °F 32 °F (1975)
Degree Days  
Heating Degree Days 20    
Month to date heating degree days 209  
Since 1 July heating degree days 4258  
Cooling Degree Days 0    
Month to date cooling degree days 0  
Year to date cooling degree days 1  
Moisture  
Dew Point 35 °F    
Average Humidity 75    
Maximum Humidity 93    
Minimum Humidity 46    
Precipitation  
Precipitation 0.19 in 0.01 in 0.21 in (2008)
Month to date precipitation 1.13 0.34  
Year to date precipitation 6.65 4.42  
Sea Level Pressure  
Sea Level Pressure 29.87 in    
Wind  
Wind Speed 7 mph ()    
Max Wind Speed 20 mph    
Max Gust Speed 26 mph    
Visibility 9.2 miles    
Events Rain    
T = Trace of Precipitation, MM = Missing Value Source: Averaged Metar Reports

Daily Weather History Graph

Daily Weather History Graph

Search for Another Location

Airport or City:

Astronomy

May. 23, 2019 Rise Set
Actual Time 5:21 AM MST 7:31 PM MST
Civil Twilight 4:53 AM MST 8:00 PM MST
Nautical Twilight 4:18 AM MST 8:34 PM MST
Astronomical Twilight 3:41 AM MST 9:12 PM MST
Moon No Moon Rise 9:29 AM MST (5/23)
Length of Visible Light 15h 06m
Length of Day
14h 09m
Waning Gibbous, 76% of the Moon is Illuminated
May 23
Waning Gibbous
May 26
Last Quarter
Jun 3
New
Jun 9
First Quarter
Jun 17
Full

Hourly Weather History & Observations

Time (MST) Temp. Windchill Dew Point Humidity Pressure Visibility Wind Dir Wind Speed Gust Speed Precip Events Conditions
12:53 AM 42.1 °F 39.2 °F 37.9 °F 85% 29.66 in 10.0 mi WSW 4.6 mph - 0.00 in   Overcast
1:36 AM 39.9 °F 36.7 °F 37.0 °F 89% 29.77 in 4.0 mi SSW 4.6 mph - 0.04 in Rain Light Rain
1:53 AM 39.9 °F 35.1 °F 37.0 °F 89% 29.67 in 8.0 mi SW 6.9 mph - 0.05 in Rain Light Rain
2:09 AM 39.0 °F 35.7 °F 36.0 °F 89% 29.77 in 2.0 mi SSW 4.6 mph - 0.07 in Rain Rain
2:17 AM 39.0 °F 32.8 °F 36.0 °F 89% 29.78 in 4.0 mi SW 9.2 mph - 0.08 in Rain Light Rain
2:53 AM 37.0 °F 32.4 °F 35.1 °F 93% 29.69 in 7.0 mi WSW 5.8 mph - 0.13 in Rain Light Rain
3:15 AM 37.0 °F 31.6 °F 35.1 °F 93% 29.79 in 10.0 mi SW 6.9 mph - 0.00 in Rain Light Rain
3:53 AM 37.9 °F 31.5 °F 35.1 °F 89% 29.70 in 10.0 mi SSW 9.2 mph - 0.00 in Rain Light Rain
4:53 AM 37.9 °F 33.5 °F 34.0 °F 86% 29.72 in 10.0 mi South 5.8 mph - 0.00 in   Scattered Clouds
5:53 AM 37.9 °F 35.5 °F 34.0 °F 86% 29.74 in 10.0 mi South 3.5 mph - N/A   Mostly Cloudy
6:53 AM 39.9 °F 34.5 °F 36.0 °F 86% 29.78 in 10.0 mi SSE 8.1 mph - N/A   Overcast
7:00 AM 39.9 °F 35.1 °F 37.0 °F 89% 29.87 in 10.0 mi SE 6.9 mph - 0.00 in Rain Light Rain
7:53 AM 39.9 °F 33.9 °F 37.0 °F 89% 29.81 in 10.0 mi SSE 9.2 mph - 0.01 in Rain Light Rain
8:53 AM 43.0 °F 36.8 °F 36.0 °F 76% 29.84 in 10.0 mi South 11.5 mph 20.7 mph 0.00 in   Overcast
9:53 AM 43.0 °F 36.8 °F 35.1 °F 74% 29.87 in 10.0 mi South 11.5 mph 21.9 mph N/A   Overcast
10:53 AM 46.0 °F 39.0 °F 35.1 °F 66% 29.90 in 10.0 mi SSW 17.3 mph 25.3 mph N/A   Overcast
11:00 AM 45.0 °F 38.2 °F 35.1 °F 68% 29.99 in 10.0 mi South 15.0 mph 21.9 mph N/A   Overcast
11:53 AM 46.0 °F 40.6 °F 36.0 °F 68% 29.93 in 10.0 mi South 11.5 mph 20.7 mph 0.00 in   Overcast
12:53 PM 48.0 °F - 36.0 °F 63% 29.94 in 10.0 mi South 15.0 mph - N/A   Overcast
1:53 PM 48.9 °F - 34.0 °F 56% 29.96 in 10.0 mi South 12.7 mph 20.7 mph N/A   Overcast
2:53 PM 48.9 °F - 35.1 °F 59% 29.98 in 10.0 mi SSW 13.8 mph - N/A   Overcast
3:53 PM 51.1 °F - 34.0 °F 52% 29.96 in 10.0 mi South 11.5 mph - N/A   Overcast
4:53 PM 54.0 °F - 34.0 °F 47% 29.96 in 10.0 mi South 6.9 mph 17.3 mph N/A   Mostly Cloudy
5:53 PM 52.0 °F - 33.1 °F 49% 29.95 in 10.0 mi South 4.6 mph - N/A   Mostly Cloudy
6:53 PM 51.1 °F - 33.1 °F 50% 29.95 in 10.0 mi SSW 4.6 mph - N/A   Mostly Cloudy
7:53 PM 48.9 °F - 34.0 °F 56% 29.96 in 10.0 mi Calm Calm - N/A   Clear
8:53 PM 43.0 °F - 36.0 °F 76% 29.99 in 10.0 mi Calm Calm - N/A   Clear
9:53 PM 42.1 °F 37.1 °F 36.0 °F 79% 30.01 in 10.0 mi SSW 8.1 mph - N/A   Clear
10:53 PM 41.0 °F 35.2 °F 35.1 °F 79% 30.01 in 10.0 mi South 9.2 mph - N/A   Clear
11:53 PM 39.9 °F 34.5 °F 35.1 °F 83% 30.00 in 10.0 mi South 8.1 mph - N/A   Clear